Location: Yucca Valley
(34.1140°N, 116.4310°W)
Time: 03:10:09
(UTC-07:00)

Daily predictions for brighter satellites

Satellite Brightness Start Highest point End
(mag) Time Altitude Azimuth Time Altitude Azimuth Time Altitude Azimuth
NOSS 3-1 (A) 4.4 00:21:11 10° NW 00:27:27 58° WNW 00:27:27 58° WNW
Cosmos 2369 Rocket 4.3 00:50:20 19° NW 00:50:20 19° NW 00:53:56 10° NNW
ATLAS 2AS CENTAUR R/B 3.3 00:42:15 10° NNW 00:49:31 63° NNE 00:49:31 63° NNE
ATLAS 3B CENTAUR R/B 4.3 00:53:28 63° SE 00:53:28 63° SE 01:18:14 10° E
CZ-2C R/B 4.3 00:53:42 10° N 00:56:11 29° N 00:56:11 29° N
Cosmos 1943 Rocket 4.1 01:22:42 23° NW 01:22:42 23° NW 01:25:51 10° N
ATLAS CENTAUR R/B 4.5 01:29:31 13° ENE 01:29:31 13° ENE 01:30:17 10° NE
SeaSat 1 4.3 01:37:47 27° NNE 01:37:47 27° NNE 01:40:46 10° N
BREEZE-M DEB (TANK) 4.1 02:06:27 10° NW 02:15:51 44° NNE 02:15:51 44° NNE
CZ-2D R/B 4.4 02:15:34 10° ENE 02:18:28 15° E 02:19:03 14° E
Cosmos 1697 Rocket 3.4 02:34:48 49° ENE 02:34:48 49° ENE 02:39:25 10° NNE
ARIANE 5 R/B 3.9 02:35:39 10° NE 02:40:03 31° E 02:40:03 31° E
Cosmos 1980 Rocket 3.2 02:43:10 37° E 02:43:10 37° E 02:48:08 10° NE
Cosmos 2082 4.3 02:37:53 10° NNW 02:41:57 49° NNW 02:41:57 49° NNW
Cosmos 1891 Rocket 4.4 02:46:02 78° NNE 02:46:02 78° NNE 02:51:41 10° N
ADEOS 3.9 02:45:23 10° NNE 02:49:53 60° NE 02:49:53 60° NE
Cosmos 2227 Rocket 3.0 02:47:14 10° NNW 02:50:59 42° NW 02:50:59 42° NW
Resurs 1-4 Rocket 3.3 02:49:35 10° NE 02:54:18 33° E 02:54:50 32° ESE
Cosmos 2322 Rocket 4.3 02:54:04 15° ESE 02:55:50 17° E 02:59:15 10° ENE
Spot 4 Rocket 4.2 02:55:45 10° NNE 03:00:27 69° NE 03:00:27 69° NE
Cosmos 2034 Rocket 3.9 03:01:31 71° WNW 03:01:31 71° WNW 03:07:32 10° N
ATLAS CENTAUR R/B 3.1 03:05:51 33° NW 03:05:51 33° NW 03:09:42 10° N
NPP 4.4 03:04:55 10° N 03:09:14 39° NW 03:09:14 39° NW
IRS-1D 3.8 03:05:40 10° NNE 03:10:34 58° E 03:10:39 58° ESE
Nadezhda 4 Rocket 4.0 03:05:42 10° N 03:11:55 76° E 03:13:25 53° SSE
Meteor 2-5 Rocket 4.2 03:06:56 10° NNW 03:11:52 51° WNW 03:11:52 51° WNW
Cosmos 2297 Rocket 2.5 03:08:23 10° NNW 03:12:50 52° NW 03:12:50 52° NW
SL-16 R/B 3.0 03:12:49 24° SE 03:16:27 58° ENE 03:22:28 10° N
Cosmos 990 Rocket 3.8 03:18:14 10° NNW 03:23:30 87° W 03:23:40 84° SSW
Cosmos 1766 4.5 03:25:21 36° NNW 03:25:21 36° NNW 03:27:51 10° N
GPS 2-04 Rocket1 3.7 03:25:17 44° ENE 03:25:17 44° ENE 03:28:05 10° E
ERS-2 4.0 03:24:14 10° N 03:26:03 24° NNW 03:26:03 24° NNW
SL-16 R/B 3.5 03:27:24 24° SE 03:29:45 33° ESE 03:34:45 10° NE
Cosmos 2360 4.3 03:29:00 55° SSE 03:30:09 69° ESE 03:35:50 10° NNE
CZ-3A R/B 4.2 03:32:26 30° WSW 03:39:17 57° NW 03:44:29 10° NNE
Cosmos 332 Rocket 4.2 03:39:15 45° SSE 03:40:19 56° ESE 03:45:03 10° NNE
UNKNOWN OBJECT B 2.9 03:39:37 10° NNE 03:43:28 67° E 03:43:29 67° ESE
Cosmos 1437 3.9 03:42:49 10° N 03:46:00 41° E 03:46:21 39° E
Cosmos 1634 Rocket 3.9 03:44:15 42° S 03:46:33 84° W 03:52:53 10° N
SL-24 R/B 4.3 03:49:17 57° WSW 03:49:27 58° WSW 03:53:58 10° NNW
Cosmos 1441 Rocket 3.8 03:45:34 10° NNW 03:48:40 47° NW 03:48:40 47° NW
Meteor 1-24 Rocket 4.1 03:44:45 10° NNW 03:50:14 45° W 03:50:46 43° WSW
EO 1 Del DPAF 3.2 03:50:30 75° SSE 03:50:48 85° ENE 03:54:41 10° N
Cosmos 1805 3.2 03:53:08 68° WNW 03:53:08 68° WNW 03:56:51 10° N
DELTA 2 R/B (1) 3.9 03:52:10 44° S 03:53:22 52° SSE 03:58:46 10° ENE
Cosmos 841 Rocket 4.3 03:53:15 33° WNW 03:53:44 34° WNW 03:58:30 10° N
Cosmos 1758 3.4 03:55:39 57° WNW 03:55:39 57° WNW 03:59:27 10° N
Cosmos 1076 Rocket 4.1 03:51:33 10° NNW 03:55:02 41° WNW 03:55:02 41° WNW
CZ-4B R/B 4.3 03:50:56 10° NNE 03:56:05 40° E 04:00:25 14° SSE
Cosmos 1544 3.1 03:56:30 65° SE 03:56:52 72° E 04:00:30 10° N
CZ-2D R/B 2.3 03:53:32 10° N 03:58:52 58° WNW 04:00:22 43° SW
Cosmos 1953 2.6 03:59:22 50° WNW 03:59:22 50° WNW 04:03:11 10° N
UNK 3.7 03:58:34 52° SW 03:59:21 60° W 04:03:59 10° NNW
Cosmos 371 Rocket 3.7 03:57:26 32° S 03:59:29 58° ESE 04:04:13 10° NNE
Cosmos 1125 Rocket 3.5 03:54:44 10° NNW 03:59:57 81° ENE 04:05:08 10° SSE
IRS-1C Rocket 4.4 03:55:37 10° NNE 04:00:49 62° ESE 04:04:01 23° S
Delta 128 4.4 04:01:01 32° SSE 04:01:01 32° SSE 04:05:02 10° ESE
Cosmos 1092 Rocket 4.1 03:56:53 10° NNW 04:03:01 56° W 04:05:50 32° SSW
NOSS 3-4 (A) 4.0 03:57:24 10° NW 04:04:10 47° WSW 04:11:15 10° S
NOSS 3-4 (C) 4.0 03:57:30 10° NW 04:04:18 47° WSW 04:11:26 10° S
Cosmos 2227 4.2 03:59:45 10° NNW 04:05:33 83° ENE 04:11:18 10° SSE
Cosmos 1500 Rocket 3.9 04:02:32 10° N 04:06:53 62° E 04:10:38 13° SSE
Cosmos 1627 Rocket 4.4 04:04:15 10° N 04:10:33 81° W 04:16:08 13° S
SME Rocket 4.4 04:09:06 34° SW 04:10:54 43° W 04:18:16 10° NNW
Cosmos 1743 Rocket 3.4 04:08:04 10° N 04:12:24 73° W 04:14:24 31° S
GEOS 3 Rocket 3.6 04:08:45 10° SE 04:13:58 82° NE 04:19:10 10° NNW
CZ-2C R/B 4.2 04:10:45 10° SSE 04:15:23 61° ENE 04:19:57 10° N
In-Cosmos 22 4.2 04:11:36 10° NNW 04:16:44 54° W 04:19:35 26° SSW
Cosmos 1697 Rocket 4.3 04:16:33 17° W 04:18:12 19° WNW 04:22:06 10° NNW
ARIANE 5 R/B 3.7 04:14:57 10° NNW 04:19:10 26° WNW 04:20:23 23° W
Cosmos-2242 4.0 04:20:15 28° W 04:20:34 28° WNW 04:24:17 10° NNW
Cosmos 2221 3.9 04:17:48 10° SSE 04:21:44 37° E 04:25:41 10° NNE
Cosmos 540 Rocket 3.8 04:20:36 32° SW 04:22:38 49° WNW 04:27:39 10° N
Abrixas 3.1 04:21:50 10° NW 04:24:51 56° NE 04:27:52 10° ESE
Okean O Rocket 1.5 04:21:00 10° N 04:25:24 77° WNW 04:27:58 25° SSW
Cosmos 1674 2.7 04:22:33 10° N 04:26:20 80° E 04:29:52 11° S
Cosmos 1980 Rocket 3.4 04:24:57 21° W 04:27:00 26° WNW 04:31:40 10° N
Cosmos 2360 Rocket 3.4 04:22:18 10° S 04:27:27 38° ESE 04:32:38 10° NE
OAO 1 4.5 04:26:59 17° W 04:31:10 66° SSW 04:36:35 10° ESE
Resurs 1-4 Rocket 3.3 04:29:42 10° NNW 04:33:56 25° WNW 04:35:55 20° W
CZ-4B DEB 4.2 04:33:30 10° NNE 04:39:03 86° WNW 04:44:25 11° SSW
Cosmos 2322 Rocket 2.4 04:35:55 23° SW 04:39:20 53° WNW 04:44:50 10° N
Cosmos 2279 Rocket 4.2 04:34:50 18° SSW 04:39:25 54° W 04:45:32 10° N
RESURS DK-1 2.2 04:37:16 10° NNW 04:41:24 74° WSW 04:45:30 10° SSE
Thor Agena Rocket 3.6 04:38:45 10° SSE 04:43:47 81° ENE 04:48:50 10° N
Milstar 3 Cent rocket 3.0 04:42:27 19° WSW 04:46:16 49° S 04:55:15 10° ESE
Aureole 1 Rocket 4.5 04:43:26 19° SW 04:47:22 46° WNW 04:54:27 10° N
PSLV R/B 4.1 04:45:48 10° NNE 04:49:59 59° E 04:54:12 10° S
Cosmos 1470 3.6 04:48:52 21° SW 04:50:48 32° W 04:54:24 10° NNW
Cosmos 1538 Rocket 4.1 04:47:22 15° SSW 04:51:39 62° WNW 04:56:56 10° N
CZ-3 Stage 3 3.8 04:18:34 10° W 04:52:36 66° SSW 04:58:16 10° ESE
Cosmos 923 Rocket 4.5 04:51:19 10° S 04:56:26 61° ESE 05:01:34 10° NNE
Aurora 2 Rocket 4.0 04:57:05 10° S 04:57:05 10° S 04:57:09 10° S
SL-16 R/B 3.9 04:57:54 15° WSW 05:00:22 18° W 05:04:25 10° NW
MOZ.5/SAFIR/RUBIN 5/SL-8 4.1 04:56:50 10° S 05:01:20 44° W 05:05:50 10° NNW
GPS 2-04 Rocket1 2.6 05:00:08 10° W 05:04:06 63° SSW 05:07:49 10° ESE
Cosmos 1461 3.3 05:00:37 10° NW 05:04:21 36° WSW 05:07:58 10° S
Cosmos 304 Rocket 4.0 04:59:34 10° S 05:04:21 73° ESE 05:09:10 10° NNE
Cosmos 1805 Rocket 3.7 05:03:43 10° N 05:08:04 80° E 05:12:27 10° S
Cosmos 773 Rocket 4.0 05:03:53 10° SSW 05:09:00 75° WNW 05:14:12 10° NNE
Cosmos 2266 Rocket 4.0 05:04:06 10° N 05:10:17 87° W 05:16:34 10° S
Okean-O 2.6 05:08:15 10° N 05:12:40 72° WNW 05:17:05 10° SSW
SL-16 R/B 3.3 05:09:17 12° WSW 05:13:47 29° WNW 05:18:41 10° N
Meteor 2-20 Rocket 4.4 05:11:22 10° NNW 05:17:25 68° W 05:23:28 10° S
Cosmos 967 Rocket 4.5 05:12:29 10° NW 05:18:46 64° WSW 05:24:56 10° SSE
CZ-4B R/B 4.1 05:16:39 10° NNW 05:19:43 23° WNW 05:22:40 10° SW
Sich 1 3.4 05:16:57 10° N 05:21:15 69° E 05:25:34 10° SSE
COSMOS 2428 3.5 05:17:54 10° S 05:23:24 55° ESE 05:28:55 10° NNE
Elektron 1 4.0 05:21:02 10° SSW 05:23:55 83° ESE 05:28:02 10° NE
Meteor 1-31 Rocket 3.2 05:22:29 10° NNE 05:26:22 68° E 05:30:12 10° S
Cosmos 2151 3.9 05:24:08 10° NNW 05:27:51 29° W 05:31:32 10° SSW
Cosmos 2263 Rocket 2.1 05:23:37 10° NNW 05:29:11 74° WSW 05:34:42 10° SSE
